Location: Dillon
(41.1766°N, 107.0923°W)
Time: 23:54:53
(UTC+00:00)

Oscar 19 - Visible Passes

Search period start: 28 June 2022 00:00
Search period end: 08 July 2022 00:00
Orbit: 772 x 790 km, 98.8° (Epoch: 28 June)

Date Brightness Start Highest point End Pass type
(mag) Time Alt. Az. Time Alt. Az. Time Alt. Az.
28 Jun 11.1 10:26:49 10° NNE 10:31:54 60° ESE 10:36:56 10° S visible
29 Jun 12.3 09:55:16 10° NE 09:59:44 30° E 10:04:10 10° SSE visible
30 Jun 13.1 09:24:35 10° ENE 09:27:24 15° E 09:30:13 10° SE visible
30 Jun 10.7 11:02:03 10° N 11:07:08 65° WNW 11:12:10 10° SSW visible
01 Jul 11.0 10:30:01 10° NNE 10:35:07 64° ESE 10:40:11 10° S visible
02 Jul 12.2 09:58:25 10° NE 10:02:58 31° E 10:07:29 10° SSE visible
03 Jul 13.0 09:27:37 10° NE 09:30:40 16° E 09:33:42 10° SE visible
03 Jul 10.8 11:05:17 10° N 11:10:20 61° WNW 11:15:22 10° SSW visible
04 Jul 10.9 10:33:13 10° NNE 10:38:21 68° ESE 10:43:26 10° S visible
05 Jul 12.1 10:01:35 10° NNE 10:06:12 33° E 10:10:48 10° SSE visible
06 Jul 13.0 09:30:40 10° NE 09:33:55 17° E 09:37:09 10° SE visible
07 Jul 10.9 10:36:26 10° NNE 10:41:34 72° ESE 10:46:40 10° S visible
